Total_Precipitation_Accumulation
0.01 0.01 0.02 0.03 0.10 0.22 0.33 0.26 0.26 0.32 0.34 0.33 0.39 0.42 0.47 0.60 1.05 1.94 1.15 0.61 0.44 0.42 0.41 0.27 0.29 0.29 0.34 0.45 0.53 0.59 0.56 0.55 0.51 0.50 0.50 0.55 0.56 0.60 0.63 0.67 0.82 1.03 1.24 1.29 1.29 1.39 1.42 1.39 1.47
0.02 0.02 0.03 0.05 0.15 0.37 0.39 0.31 0.34 0.36 0.42 0.39 0.46 0.49 0.52 0.56 0.51 0.56 0.59 0.56 0.42 0.39 0.39 0.27 0.31 0.37 0.39 0.43 0.51 0.64 0.60 0.58 0.54 0.51 0.51 0.55 0.59 0.67 0.78 0.89 1.02 1.15 1.33 1.47 1.61 1.78 1.67 1.47 1.44
0.03 0.02 0.05 0.08 0.13 0.28 0.39 0.38 0.38 0.39 0.39 0.47 0.61 0.74 0.76 0.71 0.64 0.60 0.55 0.44 0.37 0.30 0.32 0.36 0.40 0.43 0.46 0.46 0.50 0.61 0.64 0.66 0.67 0.67 0.61 0.62 0.66 0.70 0.75 0.89 1.01 1.08 1.15 1.31 1.43 1.54 1.61 1.46 1.39
0.03 0.04 0.06 0.10 0.13 0.19 0.34 0.44 0.45 0.49 0.46 0.44 0.56 0.95 0.89 0.67 0.68 0.70 0.52 0.43 0.42 0.36 0.30 0.37 0.46 0.47 0.50 0.52 0.54 0.56 0.62 0.72 0.81 0.87 0.82 0.79 0.80 0.82 0.86 0.96 0.99 1.06 1.08 1.15 1.25 1.41 1.53 1.52 1.46
0.03 0.04 0.07 0.11 0.14 0.19 0.29 0.42 0.44 0.47 0.56 0.55 0.64 1.01 1.00 0.82 0.80 0.92 0.81 0.61 0.58 0.55 0.51 0.46 0.49 0.51 0.55 0.59 0.62 0.68 0.70 0.78 0.89 0.97 1.02 1.01 0.95 0.90 0.96 1.07 1.03 1.03 1.07 1.12 1.11 1.18 1.25 1.48 1.54
0.04 0.05 0.10 0.11 0.13 0.22 0.31 0.41 0.42 0.48 0.57 0.69 0.82 1.20 1.49 1.35 1.23 1.31 1.30 0.93 0.80 0.72 0.67 0.67 0.62 0.55 0.62 0.71 0.71 0.77 0.86 0.90 0.99 1.07 1.19 1.14 1.03 0.98 1.04 1.13 1.20 1.20 1.23 1.25 1.11 1.05 1.09 1.28 1.46
0.04 0.07 0.11 0.09 0.14 0.27 0.34 0.43 0.47 0.56 0.77 0.89 1.05 1.53 1.73 1.67 1.62 1.46 1.55 1.32 0.98 0.93 0.91 0.92 0.76 0.70 0.76 0.88 0.87 0.88 0.93 0.98 1.08 1.25 1.37 1.30 1.18 1.14 1.14 1.20 1.29 1.36 1.35 1.34 1.28 1.20 1.17 1.19 1.33
0.05 0.09 0.08 0.09 0.16 0.33 0.43 0.49 0.53 0.63 0.90 1.06 1.16 1.64 1.86 1.79 1.57 1.49 1.57 1.61 1.36 1.29 1.27 1.19 1.18 1.14 1.03 1.06 1.19 1.15 1.12 1.11 1.11 1.19 1.43 1.45 1.32 1.22 1.27 1.23 1.35 1.44 1.47 1.43 1.43 1.48 1.43 1.35 1.33
0.04 0.11 0.11 0.09 0.15 0.33 0.47 0.57 0.63 0.66 0.88 1.11 1.05 1.22 1.63 1.47 1.60 1.88 1.78 1.84 1.76 1.69 1.64 1.42 1.47 1.48 1.34 1.30 1.26 1.39 1.37 1.31 1.26 1.29 1.44 1.48 1.55 1.53 1.50 1.43 1.65 1.65 1.73 1.82 1.79 1.71 1.63 1.58 1.51
0.03 0.09 0.09 0.08 0.12 0.27 0.43 0.58 0.74 0.81 0.87 1.08 1.14 1.14 1.40 1.54 1.60 1.87 2.19 2.07 2.05 1.88 1.81 1.73 1.59 1.52 1.48 1.39 1.47 1.61 1.56 1.57 1.46 1.64 1.62 1.72 2.12 2.26 1.95 2.12 2.26 2.28 2.28 2.28 2.18 2.07 1.96 1.78 1.47
0.03 0.06 0.07 0.10 0.15 0.26 0.42 0.54 0.60 0.75 0.93 1.05 1.23 1.29 1.39 1.70 1.96 1.98 2.40 2.40 2.32 2.24 2.05 2.09 1.94 1.78 1.94 2.01 1.90 1.89 1.94 2.06 1.93 2.08 2.12 2.24 2.45 2.47 2.46 2.57 2.50 2.58 2.62 2.51 2.44 2.22 1.92 1.74 1.62
0.03 0.05 0.08 0.14 0.18 0.27 0.37 0.46 0.63 0.83 1.21 1.25 1.55 1.83 1.88 1.88 2.19 2.24 2.55 2.58 2.70 2.87 2.68 2.54 2.51 2.38 2.48 2.72 2.51 2.20 2.10 2.19 2.25 2.47 2.39 2.68 2.82 2.79 2.76 2.82 2.74 2.73 2.79 2.86 2.64 2.47 2.29 2.16 1.97
0.05 0.07 0.09 0.13 0.22 0.31 0.39 0.53 0.72 0.96 1.13 1.23 1.66 2.10 2.22 2.07 1.99 2.22 2.88 2.74 2.80 3.05 3.17 2.92 2.86 2.81 2.99 3.18 3.03 2.77 2.70 2.47 2.42 2.73 2.78 2.92 3.07 3.03 3.10 3.04 3.02 2.82 2.80 2.81 2.72 2.55 2.57 2.49 2.23
0.07 0.08 0.12 0.12 0.19 0.30 0.42 0.53 0.71 0.93 0.86 1.00 1.35 1.69 1.89 2.05 2.07 2.25 2.63 2.76 2.72 2.91 3.16 3.29 3.29 3.22 3.05 3.16 3.19 2.97 2.71 2.80 2.68 2.70 2.83 2.85 3.05 3.32 3.37 3.32 3.29 3.22 3.13 3.17 2.98 2.81 2.96 2.83 2.69
0.05 0.09 0.14 0.15 0.19 0.31 0.40 0.60 0.83 1.06 1.02 1.11 1.30 1.45 1.74 2.00 2.32 2.56 2.69 2.72 2.73 2.81 2.92 3.08 3.25 3.42 3.26 3.25 3.29 3.11 2.90 2.89 2.96 3.03 3.21 3.05 3.03 3.35 3.48 3.63 3.57 3.57 3.50 3.49 3.40 3.33 3.41 3.10 2.91
0.08 0.12 0.22 0.25 0.21 0.24 0.40 0.80 1.05 1.10 1.16 1.22 1.28 1.40 1.57 1.91 2.24 2.39 2.36 2.39 2.34 2.42 2.71 2.95 3.14 3.36 3.56 3.61 3.71 3.47 3.48 3.51 3.45 3.29 3.28 3.20 3.19 3.40 3.72 3.83 3.87 3.93 3.84 3.91 3.96 3.84 3.69 3.56 3.32
0.13 0.17 0.24 0.33 0.26 0.24 0.43 0.85 1.08 1.04 1.18 1.27 1.27 1.30 1.39 1.65 1.93 2.07 2.10 2.12 2.11 2.13 2.62 2.98 3.33 3.72 3.94 4.11 4.32 4.24 4.27 4.12 3.96 3.87 3.72 3.77 3.90 3.92 4.07 4.16 4.24 4.30 4.34 4.35 4.14 4.29 4.07 4.00 3.81
0.20 0.20 0.25 0.27 0.26 0.27 0.43 0.69 0.90 1.02 1.14 1.26 1.27 1.28 1.26 1.50 1.73 1.93 2.07 2.22 2.17 2.29 2.69 3.09 3.39 3.98 4.49 4.56 4.73 4.81 5.01 4.96 4.82 4.83 4.65 4.41 4.51 4.59 4.73 4.61 4.65 4.71 4.80 4.67 4.65 4.73 4.50 4.19 4.13
0.19 0.23 0.29 0.25 0.24 0.31 0.41 0.61 0.86 0.99 1.18 1.35 1.33 1.35 1.46 1.56 1.80 2.03 2.20 2.40 2.68 2.92 3.09 3.34 3.59 3.95 4.23 4.61 4.93 5.14 5.35 5.57 5.65 5.58 5.51 5.46 5.43 5.56 5.62 5.33 5.32 5.23 5.10 4.88 4.84 4.74 4.50 4.23 4.20
0.13 0.19 0.26 0.28 0.28 0.30 0.45 0.64 0.88 0.99 1.13 1.31 1.39 1.48 1.51 1.61 1.80 2.16 2.51 2.93 3.15 3.31 3.39 3.62 3.98 4.29 4.47 4.86 5.39 5.87 6.07 6.19 6.19 6.18 6.28 6.28 6.25 6.40 6.46 6.42 6.14 5.94 5.65 5.15 4.80 4.68 4.44 4.06 4.19
0.10 0.15 0.18 0.27 0.34 0.40 0.57 0.96 1.18 1.16 1.30 1.43 1.45 1.61 1.63 1.69 1.99 2.29 2.76 3.12 3.18 3.29 3.42 3.59 4.11 4.59 5.06 5.52 6.09 6.57 6.87 6.89 6.73 6.41 6.48 6.58 6.40 6.45 6.64 6.62 6.39 6.03 5.47 4.90 4.75 4.72 4.57 4.28 4.21
0.11 0.13 0.16 0.22 0.35 0.51 0.56 1.17 1.56 1.62 1.65 1.57 1.58 1.71 1.70 1.70 1.94 2.30 2.59 2.88 3.00 3.14 3.41 3.66 4.09 4.79 5.33 5.64 6.28 6.94 7.18 7.37 7.41 7.19 6.87 6.63 6.35 6.20 6.13 5.97 5.56 5.19 4.84 4.53 4.38 4.44 4.34 4.33 4.13
0.11 0.11 0.16 0.20 0.28 0.46 0.50 0.97 1.72 1.87 1.98 1.79 1.71 1.73 1.61 1.56 1.75 2.12 2.32 2.57 2.89 3.02 3.13 3.39 3.97 4.64 5.39 6.02 6.52 7.14 7.62 7.83 7.75 7.29 6.78 6.22 5.86 5.40 4.96 4.62 4.42 4.36 4.20 4.00 3.86 3.86 3.77 3.59 3.50
0.10 0.14 0.24 0.29 0.40 0.67 0.63 0.94 1.83 2.13 2.27 2.30 1.97 1.75 1.58 1.49 1.59 1.79 2.04 2.27 2.60 2.70 2.95 3.25 3.70 4.43 5.16 5.76 6.34 6.86 7.25 7.34 7.01 6.45 5.91 5.55 5.14 4.60 4.04 3.76 3.59 3.50 3.34 3.13 3.02 3.03 3.04 3.12 3.18
0.13 0.28 0.60 0.80 0.90 0.90 0.69 1.01 1.82 2.02 1.86 1.89 1.93 1.97 1.73 1.45 1.48 1.73 1.92 2.21 2.41 2.50 2.76 3.13 3.66 4.31 4.73 5.20 5.71 6.04 6.25 6.37 6.34 5.99 5.51 5.12 4.63 4.17 3.68 3.26 3.05 2.80 2.61 2.54 2.57 2.56 2.55 2.68 2.80
0.14 0.28 0.74 1.03 1.05 1.04 1.05 1.52 2.15 1.98 1.62 1.58 1.71 1.83 1.67 1.58 1.63 1.87 2.02 2.25 2.46 2.52 2.69 3.03 3.48 3.91 4.13 4.33 4.76 5.10 5.24 5.28 5.14 4.92 4.53 4.20 3.86 3.54 3.25 2.85 2.53 2.29 2.16 2.08 2.19 2.19 2.20 2.31 2.46
0.19 0.25 0.39 0.57 0.67 1.04 1.52 2.05 2.63 2.45 1.84 1.59 1.63 1.65 1.65 1.67 1.71 1.90 2.06 2.21 2.38 2.45 2.61 2.77 3.01 3.21 3.43 3.60 3.82 4.03 4.07 3.98 3.82 3.64 3.39 3.18 2.97 2.67 2.54 2.35 2.18 2.05 1.99 2.00 2.04 2.00 2.00 2.16 2.28
0.20 0.29 0.40 0.66 1.01 1.39 1.71 2.42 3.24 3.07 2.35 1.90 1.80 1.74 1.69 1.69 1.72 1.87 1.97 2.07 2.13 2.13 2.22 2.30 2.52 2.68 2.88 2.98 3.02 2.95 2.96 2.89 2.71 2.53 2.44 2.28 2.10 2.00 2.00 1.96 1.96 1.92 1.85 1.89 1.96 1.86 1.87 1.99 2.02
0.26 0.33 0.49 0.65 0.75 1.33 1.96 2.82 3.05 3.11 2.79 2.40 1.96 1.72 1.65 1.63 1.63 1.69 1.74 1.79 1.79 1.75 1.77 1.87 2.03 2.27 2.41 2.43 2.52 2.46 2.36 2.18 2.06 1.90 1.84 1.78 1.71 1.69 1.69 1.72 1.76 1.78 1.77 1.79 1.78 1.67 1.69 1.75 1.92
0.26 0.37 0.55 0.86 0.87 1.06 1.70 2.85 2.88 3.15 3.01 2.66 2.27 1.97 1.84 1.74 1.61 1.54 1.52 1.54 1.56 1.56 1.56 1.64 1.72 1.85 1.92 2.00 2.03 2.02 1.98 1.89 1.77 1.66 1.60 1.62 1.63 1.60 1.61 1.61 1.59 1.65 1.75 1.80 1.72 1.59 1.56 1.67 1.79